Dewpoint
25 27 27 28 29 29 28 28 27 26 26 26 27 27 28 28 29 30 30 30 31 31 32 31 37 38 39
27 28 28 28 27 28 27 25 25 24 24 25 25 27 28 29 30 30 30 30 29 31 29 32 33 32 34
27 26 26 27 26 26 25 25 25 25 24 25 27 28 27 27 27 27 28 29 28 30 30 28 29 29 30
25 25 26 26 25 24 24 25 26 27 27 28 26 25 24 23 24 25 25 27 30 29 27 28 29 29 29
26 26 24 23 23 24 24 26 28 28 25 26 25 25 24 24 23 23 25 26 27 28 28 30 30 31 30
26 25 22 22 22 24 25 24 23 25 25 25 25 24 24 24 23 24 25 26 27 27 27 28 30 30 31
23 22 21 23 25 25 25 25 24 25 25 23 26 24 23 23 23 24 25 26 26 27 27 28 29 30 29
23 22 25 28 27 25 25 25 25 24 23 21 22 22 23 24 24 25 24 24 25 26 26 27 28 29 30
24 25 25 23 23 23 24 26 23 22 23 22 23 24 25 25 24 23 23 24 24 26 26 29 30 31 31
24 22 22 21 22 23 24 23 22 21 22 24 25 25 23 24 24 24 25 25 25 26 27 28 28 28 30
22 21 21 22 22 24 24 24 24 23 24 24 25 25 24 25 24 24 25 25 27 27 28 29 30 29 29
21 20 22 23 23 25 26 26 27 26 27 27 27 26 25 24 22 23 25 26 27 26 30 30 30 30 30
22 22 22 24 23 23 24 24 25 25 25 27 26 26 26 24 24 24 24 25 27 29 28 29 28 28 29
21 22 23 21 22 22 22 22 23 23 23 24 24 26 26 26 26 24 23 24 26 28 27 27 26 28 31
22 22 21 21 21 22 22 23 22 21 21 23 25 26 27 27 25 24 25 27 27 27 28 27 26 26 30
22 22 22 23 23 22 21 22 21 21 20 22 24 24 23 23 24 24 24 24 25 25 27 25 25 24 25
21 21 23 22 21 20 21 22 21 20 22 23 22 23 20 18 20 22 22 23 25 26 26 27 26 25 24
Wind_Speed
13 13 16 16 14 17 16 19 17 22 25 27 29 28 27 28 27 27 26 27 28 28 29 30 28 28 28
14 13 15 18 19 17 14 14 15 19 26 28 27 26 27 27 27 26 26 25 28 26 26 26 27 28 29
15 14 15 16 15 14 13 13 15 21 23 25 25 23 26 29 29 30 30 27 25 22 23 27 28 28 29
14 16 15 16 14 16 15 14 17 17 20 21 25 25 28 28 28 25 24 23 22 25 26 26 27 28 28
15 16 17 16 16 15 18 19 18 16 19 17 17 17 16 21 23 23 24 24 24 25 26 27 28 28 28
16 17 18 18 17 17 20 22 24 15 17 20 15 17 16 16 24 26 27 28 27 25 24 25 25 25 26
17 16 20 18 19 22 20 20 22 20 19 20 15 18 16 16 24 28 27 22 22 24 24 25 25 25 27
14 18 18 19 18 18 20 20 18 16 14 21 18 18 16 17 25 23 19 23 28 23 26 25 25 25 25
20 24 24 23 20 16 15 16 20 18 15 17 14 20 17 18 13 17 28 24 26 26 25 25 24 24 19
16 15 15 16 18 12 12 16 19 21 13 18 17 15 16 13 14 15 16 22 24 27 24 23 22 15 14
13 14 14 12 13 12 12 14 17 19 18 18 17 17 14 19 12 17 18 17 17 17 22 22 22 22 18
14 15 15 15 15 15 16 15 16 20 21 19 14 18 19 19 22 16 18 17 15 16 13 19 22 22 22
14 15 15 15 16 16 14 16 16 17 16 16 15 16 15 17 19 19 22 15 18 10 13 14 16 17 16
14 15 14 15 15 15 16 17 17 17 14 15 16 16 17 17 18 20 18 13 17 14 13 13 16 14 13
13 15 14 15 15 13 15 15 16 17 18 17 15 15 16 19 20 19 17 16 15 15 14 13 15 14 12
14 13 16 15 15 15 14 14 16 16 18 18 17 16 16 12 16 14 15 15 16 17 15 14 15 12 13
13 15 14 15 17 15 15 14 16 17 17 17 16 16 18 20 13 10 18 19 18 15 13 14 16 16 14
Wind_Direction
308 317 316 314 328 322 308 303 303 312 314 316 315 313 310 308 307 305 304 305 301 300 300 295 303 303 298
309 314 332 318 297 286 294 298 308 314 314 310 310 314 313 312 310 308 305 307 306 302 301 299 296 296 297
313 313 305 297 307 297 301 323 326 311 312 313 313 314 314 312 307 307 305 306 303 296 301 299 294 291 286
304 305 306 312 309 317 316 319 307 307 311 310 310 309 309 314 312 314 311 309 312 305 301 297 292 287 285
311 312 312 319 321 320 316 313 310 307 305 298 311 306 309 312 310 310 315 308 305 302 302 299 294 296 292
307 306 310 319 320 326 324 317 313 309 313 305 306 303 304 306 307 311 311 308 306 304 301 305 301 296 294
304 310 311 316 320 319 315 311 306 308 307 307 313 303 309 308 310 305 304 310 311 308 307 306 304 301 298
311 306 303 303 307 310 306 303 302 305 315 309 313 309 313 305 302 304 309 312 313 310 308 308 304 299 295
313 307 307 311 307 306 311 313 310 313 316 309 311 308 308 296 298 322 314 307 312 312 314 313 312 307 306
312 313 318 308 308 326 325 317 310 310 313 314 315 322 315 277 327 306 310 308 316 317 319 315 309 306 294
312 314 302 312 316 306 302 294 292 288 297 308 305 302 297 305 306 312 302 315 309 316 311 311 312 315 309
316 311 319 316 312 308 303 297 290 285 295 297 290 304 298 298 303 305 308 307 309 307 314 318 314 318 314
313 316 316 313 316 313 311 309 302 297 300 300 302 295 294 292 296 302 309 312 299 302 310 313 317 308 303
314 313 313 317 312 314 314 312 309 312 310 304 298 292 292 288 291 296 302 292 296 295 297 306 314 309 301
314 312 314 309 306 315 312 311 309 310 311 308 300 287 278 279 286 287 290 291 296 306 307 307 307 310 308
309 309 302 304 314 313 312 307 307 309 307 307 312 314 304 288 276 299 303 306 307 305 299 292 297 304 307
306 296 301 311 310 309 308 308 309 304 305 311 315 311 317 314 308 312 312 302 298 293 301 300 292 291 292